User: anonymous   Login
Location: Bowman Observatory
(41.0326°N, 73.6210°W)
Time: 14:24:44
(UTC-05:00)
Language:

Cosmos 2297 - Orbit

View from above orbital plane
View from above orbital plane
View from above satellite
View from above satellite

Ground track
Ground track

The orbit data is extracted from the following two-line orbital elements,

1 23404U 94077A   18016.50447460 -.00000054  00000-0 -34363-5 0  9991
2 23404  71.0105 206.4317 0016412 192.2049 167.8678 14.13494326194210
Epoch (UTC): 16 January 2018 12:06:26
Eccentricity: 0.0016412
inclination: 71.0105°
perigee height: 835 km
apogee height: 859 km
right ascension of ascending node: 206.4317°
argument of perigee: 192.2049°
revolutions per day: 14.13494326
mean anomaly at epoch: 167.8678°
orbit number at epoch: 19421

The dashed part of the orbit path shows where the satellite is in the earth's shadow,  

DLR